Regional Weather Roundup
Issued by NWS

Home | Current Version | Previous Version | Text Only | Print | Product List | Glossary On
Versions: 1 2 3 4 5 6 7 8 9 10 11 12 13 14 15 16 17 18 19 20 21 22 23 24 25 26 27 28 29 30 31 32 33 34 35 36 37 38 39 40 41 42 43 44 45 46 47 48 49 50
000
ASUS43 KDMX 011707
RWRIA

WEATHER ROUNDUP FOR IOWA
NATIONAL WEATHER SERVICE DES MOINES IA
1200 PM CDT WED JUL 01 2015

NOTE: "FAIR" INDICATES FEW OR NO CLOUDS BELOW 12,000 FEET WITH NO
SIGNIFICANT WEATHER AND/OR OBSTRUCTIONS TO VISIBILITY.

* - THESE STATIONS ARE NOT NWS STATIONS...THUS NOT UNDER NWS
QUALITY CONTROL.  THEY ALSO DO NOT REPORT WEATHER SUCH
AS PRECIPITATION OR FOG.

IAZ001>003-012>014-020>022-031>034-043>046-011800-
   NORTHWEST IOWA

CITY           SKY/WX    TMP DP  RH WIND       PRES   REMARKS
CARROLL *      CLOUDY    68  64  88 E7        29.94R
CHEROKEE *     RAIN      68  64  88 SE8       29.94F
DENISON *      LGT RAIN  70  66  88 NE7       29.93R
LE MARS *      CLOUDY    70  66  88 E8        29.93S
ORANGE CITY *  PTSUNNY   68  63  83 E8        29.94S
SHELDON *      MOSUNNY   66  66 100 E13       29.95S
SIOUX CITY     PTSUNNY   73  66  78 E9        29.91R
SPENCER        LGT RAIN  66  58  75 E10       29.98R
STORM LAKE *   CLOUDY    68  63  83 S7        29.98R
$$

IAZ055>058-069>071-079>083-090>094-011800-
   SOUTHWEST IOWA

CITY           SKY/WX    TMP DP  RH WIND       PRES   REMARKS
ATLANTIC *     CLOUDY    72  68  88 VRB7      29.90R
AUDUBON *      MOSUNNY   72  66  83 SE5       29.93R
CLARINDA *     CLOUDY    75  70  83 VRB6G13   29.89F
COUNCIL BLFS * MOSUNNY   77  68  73 SE10G16   29.89R
CRESTON *      PTSUNNY   73  68  83 E13       29.91S
HARLAN  *      CLOUDY    72  72 100 E6G13     29.95R
LAMONI         LGT RAIN  73  69  87 E5        29.92F
RED OAK *      MOSUNNY   77  70  78 SE12      29.88F
SHENANDOAH *   MOSUNNY   77  70  78 E15       29.87S
$$

IAZ047>049-059>061-072>074-084-011800-
   CENTRAL IOWA

CITY           SKY/WX    TMP DP  RH WIND       PRES   REMARKS
AMES           CLOUDY    70  60  70 E14G20    29.88F
ANKENY *       SUNNY     68  63  83 E7G18     29.88F
CHARITON *     PTSUNNY   73  68  83 E6        29.92F
DES MOINES     LGT RAIN  71  63  75 SE6       29.90F
GRINNELL*      CLOUDY    70  61  73 NE8       29.96R
KNOXVILLE *    PTSUNNY   72  63  73 E7        29.92S
MARSHALLTOWN   CLOUDY    70  59  68 E9        29.95R
PELLA *        CLOUDY    73  66  78 E6        29.94R
PERRY *          N/A     70  64  83 E14       29.91R
$$

IAZ004>006-015-016-023>025-035-036-011800-
   NORTH CENTRAL IOWA

CITY           SKY/WX    TMP DP  RH WIND       PRES   REMARKS
ALGONA *       MOSUNNY   66  57  72 E9        29.97S
CLARION *      MOSUNNY   70  55  60 E15       29.95S
ESTHERVILLE    CLOUDY    63  57  81 E8        29.99R
FORT DODGE *   PTSUNNY   72  59  64 E14       29.94S
MASON CITY     CLOUDY    65  57  75 E9        30.00S
FOREST CITY *  LGT RAIN  63  57  82 NE7       29.99S
IOWA FALLS *     N/A     70  57  64 E12       29.96F
$$

IAZ007>011-017>019-026>030-037>042-050>054-066-011800-
   NORTHEAST IOWA

CITY           SKY/WX    TMP DP  RH WIND       PRES   REMARKS
CEDAR RAPIDS   SUNNY     70  61  73 E10       29.96R
CHARLES CITY * SUNNY     66  57  72 E9        30.00R
CLINTON *      PTSUNNY   68  57  68 NE8       29.99F
DECORAH *        N/A    N/A N/A N/A MISG        N/A
DUBUQUE        MOSUNNY   68  57  68 N9        29.98R
MONTICELLO *   SUNNY     68 -36   1 NE9       29.97R
OELWEIN *      SUNNY     66  57  72 E8        29.99S
WATERLOO       PTSUNNY   69  56  62 NE14      29.95F
$$

IAZ064-065-067-068-078-011800-
   EAST CENTRAL IOWA

CITY           SKY/WX    TMP DP  RH WIND       PRES   REMARKS
DAVENPORT      CLOUDY    68  60  75 NE9       29.97S
IOWA CITY      MOSUNNY   70  62  76 E8        29.96S
MT. PLEASANT * PTSUNNY   79  61  53 NE12      29.93S HX  80
MUSCATINE *    PTSUNNY   72  61  68 NE10      29.95S
QUAD CITIES    CLOUDY    68  60  75 E10       29.95F
$$

IAZ062-063-075>077-085>089-095>099-011800-
   SOUTHEAST IOWA

CITY           SKY/WX    TMP DP  RH WIND       PRES   REMARKS
BURLINGTON     MOSUNNY   77  67  71 NE10      29.92S
FAIRFIELD *    SUNNY     73  64  73 E13       29.92S
FORT MADISON * SUNNY     75  70  83 E6        29.92S
KEOKUK *       MOSUNNY   79  70  73 CALM      29.90S HX  81
OSKALOOSA *      N/A     73  64  73 NE8       29.93R
CENTERVILLE *  MOSUNNY   73  68  83 N6        29.95R
OTTUMWA        CLOUDY    74  66  76 NE9       29.90S
WASHINGTON *   SUNNY     72  64  78 E13       29.95S
$$

ABBREVIATIONS USED IN REMARKS
   TC - TEMPERATURES IN CELSIUS
  WCI - WIND CHILL INDEX
   HX - HEAT INDEX
  VSB - VISIBILITY
$$




USA.gov is the U.S. government's official web portal to all federal, state and local government web resources and services.